TimePDT,TemperatureF,Dew PointF,Humidity,Sea Level PressureIn,VisibilityMPH,Wind Direction,Wind SpeedMPH,Gust SpeedMPH,PrecipitationIn,Events,Conditions,WindDirDegrees,DateUTC
12:53 AM,37.0,32.0,82,29.64,10.0,SW,5.8,-,N/A,,Clear,220,2014-03-26 07:53:00
1:53 AM,37.0,33.1,86,29.65,10.0,Calm,Calm,-,N/A,,Overcast,0,2014-03-26 08:53:00
2:53 AM,37.9,34.0,86,29.64,10.0,South,3.5,-,0.00,Rain,Light Rain,170,2014-03-26 09:53:00
3:53 AM,35.1,33.1,92,29.64,10.0,Calm,Calm,-,0.00,,Overcast,0,2014-03-26 10:53:00
4:53 AM,33.1,30.9,92,29.64,10.0,South,4.6,-,N/A,,Clear,170,2014-03-26 11:53:00
5:53 AM,28.9,27.0,92,29.65,10.0,Calm,Calm,-,N/A,,Scattered Clouds,0,2014-03-26 12:53:00
6:53 AM,28.0,27.0,96,29.65,2.0,Calm,Calm,-,N/A,,Clear,0,2014-03-26 13:53:00
7:07 AM,28.9,28.9,100,29.62,1.0,SW,3.5,-,N/A,,Clear,230,2014-03-26 14:07:00
7:49 AM,26.6,26.6,100,29.61,1.0,Calm,Calm,-,N/A,,Mist,0,2014-03-26 14:49:00
7:50 AM,28.0,27.0,96,29.65,1.0,Calm,Calm,-,N/A,,Mist,0,2014-03-26 14:50:00
7:57 AM,28.9,28.9,100,29.62,0.8,Calm,Calm,-,N/A,,Mist,0,2014-03-26 14:57:00
8:53 AM,37.0,34.0,89,29.63,10.0,SSE,5.8,-,N/A,,Unknown,160,2014-03-26 15:53:00
9:53 AM,43.0,32.0,65,29.63,10.0,East,5.8,-,N/A,,Clear,100,2014-03-26 16:53:00
10:53 AM,48.0,28.9,48,29.62,10.0,South,12.7,-,N/A,,Clear,170,2014-03-26 17:53:00
11:53 AM,48.0,27.0,44,29.61,10.0,Variable,4.6,-,N/A,,Clear,0,2014-03-26 18:53:00
12:53 PM,53.1,25.0,34,29.58,10.0,SSW,11.5,18.4,N/A,,Scattered Clouds,200,2014-03-26 19:53:00
1:53 PM,51.1,26.1,38,29.57,10.0,SSE,9.2,-,N/A,,Mostly Cloudy,150,2014-03-26 20:53:00
2:53 PM,46.0,33.1,61,29.58,10.0,SSE,10.4,-,0.00,Rain,Light Rain,160,2014-03-26 21:53:00
3:53 PM,48.0,32.0,54,29.55,10.0,East,6.9,-,0.00,,Clear,90,2014-03-26 22:53:00
4:53 PM,50.0,28.0,43,29.53,10.0,SSE,12.7,-,N/A,,Partly Cloudy,160,2014-03-26 23:53:00
5:31 PM,44.1,33.1,65,29.54,10.0,West,19.6,-,N/A,,Overcast,280,2014-03-27 00:31:00
5:53 PM,43.0,34.0,71,29.57,10.0,WNW,13.8,-,N/A,,Overcast,300,2014-03-27 00:53:00
6:53 PM,41.0,34.0,76,29.59,10.0,SSE,6.9,-,0.00,,Overcast,150,2014-03-27 01:53:00
7:53 PM,39.9,33.1,77,29.58,10.0,South,15.0,-,N/A,,Overcast,170,2014-03-27 02:53:00
8:53 PM,37.9,35.1,89,29.60,10.0,SW,10.4,-,N/A,,Scattered Clouds,220,2014-03-27 03:53:00
9:53 PM,37.0,35.1,93,29.59,10.0,West,4.6,-,N/A,,Overcast,280,2014-03-27 04:53:00
10:53 PM,37.9,33.1,83,29.58,10.0,NNW,10.4,-,N/A,,Overcast,340,2014-03-27 05:53:00
11:53 PM,37.0,34.0,89,29.61,10.0,South,5.8,-,0.00,Rain,Light Rain,170,2014-03-27 06:53:00